When you browse on this site, cookies collect data to enhance your experience and personalize the content and advertising you see.
Visit our Privacy Policy to learn more. By continuing to use the site, you agree to this use of cookies and data.

Hourly Weather Bolejny

Today, 13 July, Monday

Time Temperature Precipitation Wind Pressure Humidity
00:00 +9°C° 0 mm 2 mps 752 mmHg 92%
01:00 +8°C° 0 mm 2 mps 753 mmHg 93%
02:00 +8°C° 0 mm 2 mps 752 mmHg 94%
03:00 +8°C° 0 mm 2 mps 752 mmHg 95%
04:00 +8°C° 0 mm 3 mps 752 mmHg 96%
05:00 +10°C° 0 mm 3 mps 752 mmHg 91%
06:00 +12°C° 0 mm 3 mps 752 mmHg 87%
07:00 +13°C° 0 mm 3 mps 752 mmHg 83%
08:00 +15°C° 0.1 mm 4 mps 752 mmHg 77%
09:00 +17°C° 0.1 mm 4 mps 751 mmHg 72%
10:00 +18°C° 0.1 mm 4 mps 751 mmHg 66%
11:00 +18°C° 0.3 mm 4 mps 751 mmHg 68%
12:00 +18°C° 0.3 mm 4 mps 751 mmHg 69%
13:00 +19°C° 0.3 mm 4 mps 751 mmHg 70%
14:00 +18°C° 0.2 mm 4 mps 751 mmHg 71%
15:00 +18°C° 0.2 mm 4 mps 750 mmHg 73%
16:00 +18°C° 0.2 mm 4 mps 750 mmHg 74%
17:00 +18°C° 0 mm 3 mps 750 mmHg 77%
18:00 +17°C° 0 mm 2 mps 750 mmHg 81%
19:00 +16°C° 0 mm 2 mps 750 mmHg 84%
20:00 +15°C° 0 mm 2 mps 750 mmHg 88%
21:00 +13°C° 0 mm 1 mps 750 mmHg 91%
22:00 +12°C° 0 mm 1 mps 750 mmHg 95%
23:00 +12°C° 0 mm 1 mps 750 mmHg 95%

Tomorrow, 14 July, Tuesday

Time Temperature Precipitation Wind Pressure Humidity
00:00 +11°C° 0 mm 1 mps 750 mmHg 95%
01:00 +11°C° 0 mm 1 mps 750 mmHg 95%
02:00 +11°C° 0 mm 1 mps 750 mmHg 95%
03:00 +10°C° 0 mm 1 mps 749 mmHg 95%
04:00 +10°C° 0 mm 1 mps 749 mmHg 96%
05:00 +12°C° 0 mm 2 mps 749 mmHg 88%
06:00 +14°C° 0 mm 2 mps 749 mmHg 81%
07:00 +15°C° 0 mm 2 mps 750 mmHg 74%
08:00 +17°C° 0 mm 2 mps 749 mmHg 67%
09:00 +18°C° 0 mm 2 mps 749 mmHg 60%
10:00 +20°C° 0 mm 3 mps 749 mmHg 53%
11:00 +20°C° 0 mm 3 mps 749 mmHg 51%
12:00 +21°C° 0 mm 3 mps 749 mmHg 48%
13:00 +22°C° 0 mm 3 mps 748 mmHg 46%
14:00 +23°C° 0 mm 2 mps 748 mmHg 47%
15:00 +23°C° 0 mm 2 mps 748 mmHg 48%
16:00 +23°C° 0 mm 2 mps 748 mmHg 49%
17:00 +20°C° 0 mm 2 mps 747 mmHg 56%
18:00 +20°C° 0 mm 1 mps 747 mmHg 63%
19:00 +19°C° 0 mm 1 mps 747 mmHg 70%
20:00 +18°C° 0 mm 1 mps 747 mmHg 76%
21:00 +15°C° 0 mm 2 mps 747 mmHg 81%
22:00 +14°C° 0 mm 2 mps 747 mmHg 86%
23:00 +13°C° 0 mm 2 mps 747 mmHg 88%

Day after tomorrow, 15 July, Wednesday

Time Temperature Precipitation Wind Pressure Humidity
00:00 +13°C° 0 mm 2 mps 747 mmHg 90%
01:00 +13°C° 0 mm 2 mps 747 mmHg 92%
02:00 +13°C° 0 mm 2 mps 747 mmHg 93%
03:00 +12°C° 0 mm 2 mps 747 mmHg 93%
04:00 +12°C° 0 mm 2 mps 746 mmHg 93%
05:00 +14°C° 0 mm 2 mps 746 mmHg 85%
06:00 +16°C° 0 mm 2 mps 746 mmHg 78%
07:00 +19°C° 0 mm 2 mps 747 mmHg 70%
08:00 +20°C° 0 mm 2 mps 746 mmHg 64%
09:00 +21°C° 0 mm 3 mps 746 mmHg 58%
10:00 +24°C° 0 mm 3 mps 746 mmHg 52%
11:00 +24°C° 0 mm 3 mps 746 mmHg 52%
12:00 +24°C° 0 mm 3 mps 745 mmHg 51%
13:00 +25°C° 0 mm 4 mps 745 mmHg 51%
14:00 +25°C° 0.3 mm 4 mps 745 mmHg 54%
15:00 +23°C° 0.3 mm 4 mps 744 mmHg 56%
16:00 +24°C° 0.3 mm 3 mps 744 mmHg 59%
17:00 +22°C° 0.5 mm 3 mps 744 mmHg 67%
18:00 +20°C° 0.5 mm 3 mps 744 mmHg 76%
19:00 +19°C° 0.5 mm 2 mps 744 mmHg 84%
20:00 +18°C° 0 mm 2 mps 744 mmHg 86%
21:00 +17°C° 0 mm 2 mps 744 mmHg 88%
22:00 +16°C° 0 mm 2 mps 744 mmHg 90%
23:00 +16°C° 0 mm 2 mps 744 mmHg 91%

16 July, Thursday

Time Temperature Precipitation Wind Pressure Humidity
00:00 +15°C° 0 mm 2 mps 743 mmHg 92%
01:00 +14°C° 0 mm 3 mps 743 mmHg 93%
02:00 +15°C° 0.1 mm 2 mps 743 mmHg 94%
03:00 +15°C° 0.1 mm 2 mps 743 mmHg 94%
04:00 +15°C° 0.1 mm 2 mps 743 mmHg 95%
05:00 +15°C° 0.2 mm 2 mps 743 mmHg 94%
06:00 +16°C° 0.2 mm 2 mps 743 mmHg 93%
07:00 +18°C° 0.2 mm 1 mps 743 mmHg 91%
08:00 +18°C° 0.7 mm 1 mps 743 mmHg 92%
09:00 +18°C° 0.7 mm 1 mps 743 mmHg 93%
10:00 +18°C° 0.7 mm 1 mps 743 mmHg 93%
11:00 +18°C° 0.3 mm 1 mps 743 mmHg 93%
12:00 +18°C° 0.3 mm 1 mps 743 mmHg 92%
13:00 +18°C° 0.3 mm 1 mps 743 mmHg 92%
14:00 +18°C° 0.2 mm 1 mps 743 mmHg 92%
15:00 +18°C° 0.2 mm 1 mps 743 mmHg 92%
16:00 +18°C° 0.2 mm 1 mps 743 mmHg 92%
17:00 +18°C° 0.1 mm 1 mps 743 mmHg 93%
18:00 +16°C° 0.1 mm 1 mps 743 mmHg 94%
19:00 +16°C° 0.1 mm 1 mps 743 mmHg 95%
20:00 +15°C° 0.1 mm 0 mps 743 mmHg 95%
21:00 +15°C° 0.1 mm 0 mps 743 mmHg 95%
22:00 +14°C° 0.1 mm 0 mps 743 mmHg 96%
23:00 +14°C° 0.1 mm 0 mps 743 mmHg 96%

17 July, Friday

Time Temperature Precipitation Wind Pressure Humidity
00:00 +14°C° 0.1 mm 0 mps 743 mmHg 96%
01:00 +14°C° 0.1 mm 0 mps 743 mmHg 97%
02:00 +14°C° 0.4 mm 0 mps 743 mmHg 97%
03:00 +13°C° 0.4 mm 0 mps 743 mmHg 98%
04:00 +13°C° 0.4 mm 0 mps 743 mmHg 98%
05:00 +14°C° 0.8 mm 0 mps 743 mmHg 97%
06:00 +15°C° 0.8 mm 1 mps 744 mmHg 97%
07:00 +16°C° 0.8 mm 1 mps 744 mmHg 96%
08:00 +16°C° 1.1 mm 1 mps 744 mmHg 96%
09:00 +16°C° 1.1 mm 1 mps 744 mmHg 96%
10:00 +16°C° 1.1 mm 1 mps 744 mmHg 96%
11:00 +16°C° 1.1 mm 1 mps 744 mmHg 95%
12:00 +16°C° 1.1 mm 2 mps 744 mmHg 95%
13:00 +16°C° 1.1 mm 2 mps 744 mmHg 95%
14:00 +16°C° 0.6 mm 2 mps 744 mmHg 94%
15:00 +17°C° 0.6 mm 2 mps 744 mmHg 94%
16:00 +17°C° 0.6 mm 3 mps 744 mmHg 93%
17:00 +16°C° 0.4 mm 3 mps 744 mmHg 94%
18:00 +16°C° 0.4 mm 3 mps 744 mmHg 94%
19:00 +16°C° 0.4 mm 3 mps 744 mmHg 95%
20:00 +14°C° 0.3 mm 3 mps 745 mmHg 95%
21:00 +15°C° 0.3 mm 2 mps 745 mmHg 95%
22:00 +15°C° 0.3 mm 2 mps 745 mmHg 96%
23:00 +14°C° 0.2 mm 2 mps 745 mmHg 96%

18 July, Saturday

Time Temperature Precipitation Wind Pressure Humidity
00:00 +14°C° 0.2 mm 2 mps 745 mmHg 96%
01:00 +14°C° 0.2 mm 2 mps 745 mmHg 96%
02:00 +14°C° 0 mm 2 mps 745 mmHg 96%
03:00 +14°C° 0 mm 2 mps 745 mmHg 96%
04:00 +13°C° 0 mm 2 mps 745 mmHg 97%
05:00 +14°C° 0 mm 3 mps 745 mmHg 94%
06:00 +16°C° 0 mm 3 mps 745 mmHg 91%
07:00 +17°C° 0 mm 3 mps 745 mmHg 89%
08:00 +18°C° 0.4 mm 3 mps 745 mmHg 82%
09:00 +20°C° 0.4 mm 3 mps 745 mmHg 76%
10:00 +21°C° 0.4 mm 3 mps 745 mmHg 69%
11:00 +22°C° 0.2 mm 3 mps 745 mmHg 64%
12:00 +24°C° 0.2 mm 3 mps 745 mmHg 60%
13:00 +23°C° 0.2 mm 4 mps 745 mmHg 56%
14:00 +23°C° 0.1 mm 4 mps 745 mmHg 58%
15:00 +23°C° 0.1 mm 4 mps 745 mmHg 59%
16:00 +22°C° 0.1 mm 4 mps 745 mmHg 61%
17:00 +21°C° 0 mm 4 mps 745 mmHg 68%
18:00 +20°C° 0 mm 3 mps 745 mmHg 75%
19:00 +18°C° 0 mm 3 mps 745 mmHg 81%
20:00 +17°C° 0 mm 2 mps 745 mmHg 85%
21:00 +15°C° 0 mm 2 mps 745 mmHg 89%
22:00 +14°C° 0 mm 2 mps 745 mmHg 93%
23:00 +13°C° 0 mm 2 mps 745 mmHg 93%
Show more